Dansville, NY

8:22 AM EST on November 13, 2019 (GMT -0500)
Dansville Municipal

Weather History for KDSV - September, 2019

Change the Weather History Date:

Thursday, September 19, 2019

  Actual Average Record
Temperature  
Mean Temperature 60 °F -  
Max Temperature 75 °F 72 °F 94 °F (1955)
Min Temperature 46 °F 48 °F 33 °F (1959)
Degree Days  
Heating Degree Days 4    
Growing Degree Days 10 (Base 50)    
Moisture  
Dew Point 49 °F    
Average Humidity 73    
Maximum Humidity 96    
Minimum Humidity 38    
Precipitation  
Precipitation 0.00 in - - ()
Sea Level Pressure  
Sea Level Pressure 30.31 in    
Wind  
Wind Speed 6 mph (SE)    
Max Wind Speed 9 mph    
Max Gust Speed -    
Visibility 10 miles    
Events      
Averages and records for this station are not official NWS values.
T = Trace of Precipitation, MM = Missing Value Source: NWS Daily Summary

Daily Weather History Graph

Daily Weather History Graph

Search for Another Location

Airport or City:

Astronomy

Sep. 19, 2019 Rise Set
Actual Time 6:54 AM EDT 7:13 PM EDT
Civil Twilight 6:26 AM EDT 7:42 PM EDT
Nautical Twilight 5:53 AM EDT 8:15 PM EDT
Astronomical Twilight 5:19 AM EDT 8:49 PM EDT
Moon 10:15 PM EDT (9/19) 12:02 PM EDT (9/19)
Length of Visible Light 13h 15m
Length of Day
12h 19m
Waning Gibbous, 74% of the Moon is Illuminated
Sep 19
Waning Gibbous
Sep 21
Last Quarter
Sep 28
New
Oct 5
First Quarter
Oct 13
Full

Hourly Weather History & Observations

Time (EDT) Temp. Windchill Dew Point Humidity Pressure Visibility Wind Dir Wind Speed Gust Speed Precip Events Conditions
12:54 AM 51.1 °F - 48.9 °F 92% 30.33 in 10.0 mi SE 5.8 mph - N/A   Clear
1:54 AM 51.1 °F - 48.0 °F 89% 30.32 in 10.0 mi SE 8.1 mph - N/A   Clear
2:54 AM 48.9 °F - 46.0 °F 90% 30.33 in 10.0 mi ESE 4.6 mph - N/A   Clear
3:54 AM 48.9 °F - 46.0 °F 90% 30.33 in 10.0 mi SE 6.9 mph - N/A   Clear
4:54 AM 48.0 °F - 46.0 °F 93% 30.33 in 10.0 mi ESE 8.1 mph - N/A   Clear
5:54 AM 46.0 °F 43.1 °F 45.0 °F 96% 30.34 in 10.0 mi SE 5.8 mph - N/A   Clear
6:54 AM 46.0 °F 41.9 °F 44.1 °F 93% 30.35 in 10.0 mi SE 8.1 mph - N/A   Clear
7:54 AM 48.0 °F - 45.0 °F 89% 30.36 in 10.0 mi ESE 6.9 mph - N/A   Clear
8:54 AM 53.1 °F - 48.0 °F 83% 30.36 in 10.0 mi SE 8.1 mph - N/A   Clear
9:54 AM 61.0 °F - 50.0 °F 67% 30.35 in 10.0 mi SE 6.9 mph - N/A   Clear
10:54 AM 64.9 °F - 52.0 °F 63% 30.35 in 10.0 mi SSE 8.1 mph - N/A   Clear
11:54 AM 68.0 °F - 53.1 °F 59% 30.33 in 10.0 mi SE 8.1 mph - N/A   Clear
12:54 PM 71.1 °F - 51.1 °F 49% 30.31 in 10.0 mi SE 6.9 mph - N/A   Clear
1:54 PM 72.0 °F - 48.9 °F 44% 30.29 in 10.0 mi Variable 5.8 mph - N/A   Clear
2:54 PM 73.0 °F - 48.9 °F 42% 30.28 in 10.0 mi SSE 4.6 mph - N/A   Clear
3:54 PM 75.0 °F - 48.0 °F 38% 30.27 in 10.0 mi Calm Calm - N/A   Clear
4:54 PM 73.9 °F - 50.0 °F 43% 30.26 in 10.0 mi SE 5.8 mph - N/A   Clear
5:54 PM 73.0 °F - 51.1 °F 46% 30.25 in 10.0 mi SSE 6.9 mph - N/A   Clear
6:54 PM 66.9 °F - 53.1 °F 61% 30.26 in 10.0 mi South 3.5 mph - N/A   Clear
7:54 PM 61.0 °F - 54.0 °F 78% 30.27 in 10.0 mi SSW 3.5 mph - N/A   Clear
8:54 PM 59.0 °F - 53.1 °F 81% 30.29 in 10.0 mi Calm Calm - N/A   Clear
9:54 PM 55.9 °F - 53.1 °F 90% 30.28 in 10.0 mi SE 9.2 mph - N/A   Clear
10:54 PM 55.0 °F - 51.1 °F 86% 30.29 in 10.0 mi ESE 8.1 mph - N/A   Clear
11:54 PM 55.0 °F - 51.1 °F 86% 30.28 in 10.0 mi SE 8.1 mph - N/A   Clear